SCP
0 0 0 0 0 0 0 0 0 0 0 0 0 0 0 -0 -0 0 0 -0 0 0 0 0 0 0 0 0 0 0 0 0 0 0 0 0 0 0 0 0 0 0 0 0
0 0 0 0 0 0 0 0 0 0 0 0 0 0 0 0 0 0 0 0 0 0 0 0 0 0 0 0 0 0 0 0 0 0 0 0 0 0 0 0 0 0 0 0
0 0 0 0 0 0 0 0 0 0 0 0 0 0 0 0 0 0 0 0 0 0 0 0 0 0 0 0 0 0 0 0 0 0 0 0 0 0 0 0 0 0 0 0
0 0 0 0 0 0 0 0 0 0 0 0 0 0 0 0 0 0 0 0 0 0 0 0 0 0 0 0 0 0 0 0 0 0 0 0 0 0 0 0 0 0 0 0
0 0 0 0 0 0 0 0 0 0 0 -0 -0 -0 -0 0 0 0 0 0 0 0 0 0 0 0 0 0 0 0 0 0 0 0 0 0 0 0 0 0 0 0 0 0
0 0 0 0 0 0 0 0 0 0 0 0 -0 -0 0 0 0 0 0 0 0 0 0 0 0 0 0 0 0 0 0 0 0 0 0 0 0 0 0 0 0 0 0 0
0 0 0 0 0 -0 0 0 0 0 0 0 0 0 0 0 0 0 0 0 0 0 0 0 0 0 0 0 0 0 0 0 0 0 0 0 0 0 0 0 0 0 0 0
0 0 0 0 0 0 0 0 0 0 0 0 0 0 0 0 0 0 -0 0 0 0 0 0 0 0 0 0 0 0 0 0 0 0 0 0 0 0 0 0 0 0 0 0
0 0 0 0 0 0 0 0 0 0 0 0 0 0 0 0 0 -0 0 -0 -0 -0 0 0 0 0 0 0 0 0 0 0 0 0 0 0 0 0 0 0 0 0 0 0
0 0 0 0 0 0 0 0 0 0 0 0 0 0 0 -0 0 -0 -0 0 -0 0 -0 -0 0 0 0 0 0 0 0 0 0 0 0 0 0 0 0 0 0 0 0 0
0 0 -0 0 0 0 0 0 0 -0 0 0 -0 -0 -0 -0 -0 -0 0 0 -0 0 -0 -0 0 0 0 0 0 0 0 0 0 0 0 0 0 0 0 0 0 0 0 0
0 0 0 0 0 0 0 0 0 0 0 0 0 0 0 0 0 -0 0 0 0 0 -0 0 -0 -0 -0 0 0 0 0 0 0 0 0 0 0 0 0 0 0 0 0 0
0 0 0 0 0 0 0 0 0 0 0 0 0 0 0 0 0 0 0 0 0 0 -0 -0 0 -0 -0 0 0 0 -0 -0 0 0 0 -0 0 0 -0 0 -0 0 0 0
-0 0 0 0 0 0 0 0 0 0 0 0 0 0 0 -0 -0 -0 -0 -0 -0 -0 -0 -0 -0 -0 -0 0 -0 -0 0 0 -0 0 -0 0 -0 0 0 -0 0 0 0 0
-0 0 0 0 0 0 0 0 0 0 0 0 -0 0 -0 -0 -0 -0 -0 -0 -0 -0 -0 -0 -0 -0 -0 -0 -0 0 -0 0 0 0 -0 -0 0 0 0 0 0 0 0 0
0 0 0 0 0 0 0 0 0 0 0 -0 0 -0 -0 0 -0 -0 -0 -0 -0 -0 -0 -0 -0 -0 -0 -0 0 -0 0 0 0 0 0 0 0 0 0 0 0 0 0 0
-0 -0 0 0 -0 0 0 0 0 0 0 0 0 0 0 -0 0 0 0 0 -0 -0 -0 -0 -0 -0 0 0 0 0 0 0 0 0 0 0 0 -0 -0 0 0 0 0 0
0 0 0 -0 0 0 0 0 0 0 0 0 0 -0 -0 -0 -0 -0 -0 -0 -0 -0 -0 -0 -0 0 0 0 0 0 0 0 0 0 0 0 0 0 0 0 0 0 0 0
-0 -0 0 0 0 0 0 0 0 0 0 0 0 -0 -0 -0 -0 -0 -0 -0 -0 0 0 0 0 -0 0 0 0 0 0 0 0 0 0 0 0 0 0 0 0 0 0 0
-0 -0 -0 -0 0 0 0 0 0 0 0 0 0 0 -0 -0 -0 -0 -0 -0 -0 -0 -0 -0 -0 0 -0 0 0 0 0 0 0 0 0 0 0 0 0 0 0 0 0 0
-0 -0 -0 -0 -0 0 0 0 0 0 0 0 0 0 0 0 -0 -0 0 0 -0 -0 -0 -0 0 0 0 0 0 0 0 0 0 0 0 0 0 0 0 0 0 0 0 0
-0 -0 -0 -0 -0 0 0 0 0 0 0 0 0 0 0 0 0 0 0 0 0 -0 0 0 0 0 0 0 0 0 0 0 0 0 0 0 0 0 0 0 0 0 0 0
-0 -0 -0 -0 -0 0 0 0 0 0 0 0 0 0 0 0 0 0 0 -0 0 0 0 0 0 0 0 0 0 0 0 0 0 0 0 0 0 0 0 0 0 0 0 0
-0 -0 -0 0 -0 -0 0 0 0 0 0 0 0 0 0 0 0 0 0 0 -0 0 0 0 0 0 0 0 0 0 0 0 0 0 0 0 0 0 0 0 0 0 0 0
-0 -0 -0 0 0 -0 0 0 0 0 0 0 -0 0 0 0 0 0 -0 -0 -0 0 -0 -0 -0 -0 0 0 0 0 0 0 0 0 0 0 0 0 0 0 0 0 0 0
0 -0 0 -0 -0 -0 0 0 0 0 0 0 -0 -0 -0 0 0 0 0 -0 -0 0 0 0 -0 0 0 0 0 0 0 0 0 0 0 0 0 0 0 0 0 0 0 0
0 0 0 0 -0 -0 -0 0 0 -0 -0 -0 0 -0 0 -0 -0 0 -0 0 0 0 0 -0 -0 -0 0 0 0 0 0 0 0 0 0 0 0 0 0 -0 0 0 0 0
Wind_Speed_500mb
13 14 16 21 27 27 21 23 16 31 33 30 12 20 18 27 33 39 58 40 34 42 49 47 52 75 61 59 51 46 56 60 73 73 64 64 64 60 56 55 55 58 59 59
21 16 17 24 24 29 31 30 14 12 16 10 22 27 27 32 35 27 13 5 7 7 16 25 38 47 63 67 50 58 61 76 72 69 69 70 70 69 66 63 65 66 69 70
8 7 11 13 5 8 9 10 4 5 8 20 19 16 29 25 15 21 20 19 24 20 11 24 28 38 41 45 55 40 40 35 49 69 79 76 72 70 70 71 70 72 76 79
7 6 2 9 15 8 8 13 9 6 10 10 19 38 52 44 8 26 39 38 36 38 39 41 37 36 38 39 47 49 58 65 60 56 55 61 70 71 74 75 74 76 77 78
4 5 12 9 14 14 13 2 15 15 20 28 36 41 23 3 44 61 60 57 56 55 55 53 52 42 42 45 54 58 59 62 66 71 74 75 79 83 82 84 84 83 84 81
5 4 9 3 17 21 9 12 19 14 18 24 39 19 21 49 66 67 63 66 64 56 45 52 57 56 62 65 66 67 65 62 59 64 71 85 89 89 87 87 91 89 90 91
3 9 10 10 26 29 4 9 37 28 27 32 21 28 66 76 77 76 73 69 68 68 69 67 70 71 76 78 85 88 92 98 99 90 70 69 78 92 95 93 97 96 96 98
3 6 12 5 14 3 10 29 34 39 48 48 55 58 76 78 73 77 83 82 73 69 68 76 80 75 77 84 91 92 95 98 102 99 106 108 93 75 70 77 84 88 92 101
11 10 6 6 14 8 27 31 37 51 62 58 60 83 89 79 70 82 85 90 88 77 74 73 75 75 86 89 86 89 94 87 82 85 87 84 86 89 88 91 94 97 100 107
8 2 8 50 4 36 43 39 51 51 51 70 73 87 82 83 73 73 73 60 63 56 61 68 68 67 69 69 71 71 75 79 81 83 83 84 87 84 84 87 88 95 96 94
10 14 31 4 41 55 60 58 55 51 71 57 80 78 76 78 76 75 69 64 61 62 67 70 67 65 70 75 73 74 78 79 80 83 83 82 84 82 81 83 85 83 82 74
8 13 17 40 56 63 67 58 70 55 64 79 83 82 79 75 76 73 72 67 64 66 67 71 66 68 72 69 69 72 79 80 82 83 84 85 86 83 82 80 77 79 79 73
13 38 39 52 52 51 58 76 68 64 73 72 91 69 78 75 73 73 70 65 65 65 66 67 69 75 75 70 69 74 82 81 85 88 85 83 81 78 68 68 63 64 69 70
24 32 28 29 53 66 71 75 73 69 71 62 91 71 77 72 78 69 65 61 58 61 64 65 68 76 72 70 67 73 76 69 78 90 102 101 102 93 84 70 59 66 66 70
26 37 45 55 60 68 62 69 73 68 67 80 97 76 77 80 80 72 65 57 54 56 60 59 65 72 61 58 58 62 66 75 71 82 94 87 88 93 93 80 82 62 55 56
49 48 45 52 60 60 72 70 67 66 63 78 93 91 84 77 76 70 59 50 52 58 59 58 61 58 49 46 52 61 68 74 54 37 13 24 46 82 93 83 70 60 60 54
39 40 56 57 64 67 66 69 67 72 78 85 105 92 87 88 73 64 60 53 50 52 51 50 55 45 45 45 50 60 62 47 16 29 33 35 53 60 65 69 53 50 51 51
31 42 45 53 59 62 67 72 73 82 71 101 91 94 92 80 74 66 58 52 49 49 47 44 46 47 44 43 46 48 45 27 22 33 54 50 70 63 73 74 80 69 93 90
38 43 46 48 48 54 64 68 73 80 84 90 95 96 90 77 70 59 50 46 45 47 48 46 44 42 35 26 26 33 39 36 41 38 60 67 65 63 70 76 77 63 75 86
45 54 46 49 50 52 59 65 72 81 85 86 97 93 92 83 75 62 49 45 41 46 48 37 27 23 9 4 14 20 31 45 56 50 55 74 84 82 75 81 90 87 87 84
48 57 47 52 53 51 55 62 71 82 89 90 93 97 95 82 75 63 59 62 38 26 20 13 3 18 26 26 34 32 40 61 74 79 82 73 76 78 86 79 82 81 79 75
46 50 45 52 53 54 58 62 69 77 90 91 95 97 96 86 88 70 57 61 54 59 51 38 46 49 39 31 40 49 64 80 78 79 76 79 82 81 79 76 74 72 70 68
41 40 43 53 54 53 60 63 72 82 88 87 95 97 95 89 82 88 83 69 58 61 57 54 51 46 40 35 54 61 58 66 74 75 74 70 67 69 69 68 66 65 61 59
33 41 41 51 53 54 64 66 71 85 89 84 91 96 93 97 88 79 71 68 57 60 58 48 43 40 44 57 53 55 56 55 59 66 65 61 60 66 64 63 62 58 57 58
40 54 51 54 55 54 56 59 69 87 99 87 90 93 90 87 86 79 76 68 65 61 59 58 50 52 52 55 53 47 47 47 49 54 57 59 64 65 65 63 64 61 58 59
42 52 58 51 51 48 49 54 59 80 92 86 85 89 90 87 82 80 76 72 63 57 53 49 52 48 49 50 51 48 46 47 48 53 56 58 57 58 61 63 64 62 61 58
36 41 54 56 52 47 45 47 58 77 86 84 81 79 82 83 81 79 78 75 69 58 52 47 45 44 44 43 44 45 43 46 51 50 43 52 58 64 67 66 65 64 63 58
Wind_Direction_500mb
265 263 274 277 281 280 249 243 241 277 263 266 316 329 326 332 332 311 269 280 284 291 274 263 265 276 266 239 263 252 244 238 232 235 249 260 263 266 270 272 281 289 291 297
286 263 266 276 285 282 272 270 261 296 321 346 316 333 327 331 339 2 3 299 3 334 304 317 270 246 244 239 251 244 267 237 236 243 248 251 254 258 262 267 274 282 289 292
275 248 298 286 229 282 317 15 296 299 345 336 289 310 300 302 304 325 332 329 313 302 297 327 277 275 263 257 251 238 247 265 252 246 245 246 249 253 258 264 271 277 282 288
261 15 253 235 24 82 18 80 92 204 251 311 343 327 316 304 283 338 324 315 316 312 284 266 288 285 273 264 264 261 263 265 264 262 257 254 253 257 261 262 263 266 270 276
150 195 287 317 26 354 334 319 22 352 335 329 326 313 298 136 315 314 306 301 295 294 287 285 278 259 254 255 259 261 263 264 267 271 269 264 259 257 259 261 261 258 260 267
84 175 238 15 340 317 346 256 23 3 344 334 332 310 299 302 301 300 297 298 295 289 275 280 279 279 275 271 272 272 276 280 277 267 264 262 260 262 265 259 257 258 261 266
192 240 279 12 309 310 249 294 342 331 315 305 300 289 295 299 297 297 293 291 295 296 291 285 280 277 277 278 278 281 283 283 280 268 263 262 263 259 257 256 252 253 259 267
224 246 269 294 314 228 324 322 311 304 294 299 302 302 307 297 292 295 292 288 287 287 283 281 281 280 278 278 282 282 280 276 278 270 264 257 258 253 245 241 245 251 259 266
198 226 168 329 256 323 332 306 305 312 310 303 313 311 311 300 296 295 288 285 287 283 280 278 275 272 273 276 276 274 276 274 266 262 260 260 259 257 256 257 259 260 263 267
3 225 278 312 332 324 324 309 312 319 316 317 307 309 305 304 298 297 294 285 292 289 288 283 279 279 275 272 271 269 268 266 267 266 263 259 257 251 248 248 248 253 256 259
266 292 321 253 322 319 311 310 317 304 317 318 314 309 307 304 305 299 295 293 290 286 280 280 281 278 277 279 277 272 271 269 263 257 255 254 253 252 248 244 244 245 248 246
249 301 290 287 308 319 315 305 305 304 315 319 320 306 311 304 304 299 296 295 292 286 286 288 288 287 286 285 281 272 267 266 265 263 257 253 251 251 251 248 246 245 249 245
273 298 293 296 308 316 304 312 308 307 311 311 327 307 322 300 308 307 298 297 295 293 291 288 287 284 286 286 283 276 271 273 275 271 259 249 243 240 238 244 243 239 236 236
329 332 314 310 306 323 314 311 312 317 313 306 330 317 322 307 318 309 307 303 298 293 292 291 290 289 291 287 285 281 282 277 279 275 269 251 239 231 231 228 226 230 234 235
327 321 304 311 321 312 316 324 319 316 320 324 336 325 325 318 319 315 313 310 306 299 294 294 290 289 292 294 290 295 305 304 289 286 282 264 240 209 210 217 225 228 236 234
319 320 327 320 314 327 335 329 326 322 319 325 330 332 328 325 317 319 317 313 302 296 297 298 298 298 297 302 313 307 302 314 332 323 23 101 142 176 192 205 211 223 230 233
326 320 322 326 332 331 329 334 336 325 324 330 331 332 330 331 325 324 324 318 308 302 301 302 301 298 298 294 303 314 322 350 39 84 124 113 138 158 177 195 196 182 168 151
337 328 323 325 326 329 333 342 338 337 333 333 332 335 339 333 331 332 328 323 315 308 303 300 292 289 294 306 319 320 332 26 126 116 120 112 130 142 136 128 141 133 125 133
348 338 333 332 336 340 339 344 345 341 333 336 340 341 341 343 344 342 338 329 319 312 302 295 285 280 297 325 327 341 14 102 133 129 120 121 117 138 125 125 136 125 129 132
350 350 346 347 352 352 352 354 349 343 339 342 350 349 348 353 356 355 355 350 345 322 308 302 283 269 287 75 57 29 85 121 138 133 124 117 119 118 129 124 132 133 141 143
348 349 350 348 352 3 2 359 356 348 346 351 355 355 354 356 6 8 6 358 9 7 354 338 64 116 114 115 110 117 102 122 126 127 123 115 122 127 135 135 136 134 132 134
348 355 358 2 4 5 5 6 3 357 351 358 3 3 3 7 12 22 26 13 31 49 57 80 96 98 94 85 107 95 118 115 117 120 127 132 134 135 136 141 139 135 137 137
357 6 7 7 9 7 8 10 12 359 1 2 9 9 12 16 17 16 22 37 53 70 76 89 89 86 84 90 113 119 118 124 130 132 136 135 136 137 138 137 138 138 141 145
9 9 11 12 13 13 9 9 15 3 9 10 15 18 18 17 26 29 32 39 54 79 93 104 105 105 118 121 125 129 134 134 138 138 138 139 141 141 139 141 141 142 147 151
30 24 19 18 17 15 11 9 14 4 11 17 19 22 25 30 29 28 36 40 48 66 83 102 107 109 116 127 131 129 129 130 132 134 138 139 140 143 145 146 147 148 149 148
23 23 20 22 22 18 15 15 16 10 12 17 22 24 25 27 30 35 40 43 47 55 68 78 91 100 110 119 126 128 128 132 134 136 139 142 145 145 146 145 145 145 144 146
27 20 18 22 23 25 24 24 21 13 18 21 22 27 27 29 30 35 40 42 44 49 56 66 82 96 105 114 119 125 131 135 138 139 140 147 147 145 143 142 143 145 145 145
Wind_Speed_850mb
13 14 16 21 27 27 21 23 16 31 33 30 12 20 18 27 33 39 58 40 34 42 49 47 52 75 61 59 51 46 56 60 73 73 64 64 64 60 56 55 55 58 59 59
21 16 17 24 24 29 31 30 14 12 16 10 22 27 27 32 35 27 13 5 7 7 16 25 38 47 63 67 50 58 61 76 72 69 69 70 70 69 66 63 65 66 69 70
8 7 11 13 5 8 9 10 4 5 8 20 19 16 29 25 15 21 20 19 24 20 11 24 28 38 41 45 55 40 40 35 49 69 79 76 72 70 70 71 70 72 76 79
7 6 2 9 15 8 8 13 9 6 10 10 19 38 52 44 8 26 39 38 36 38 39 41 37 36 38 39 47 49 58 65 60 56 55 61 70 71 74 75 74 76 77 78
4 5 12 9 14 14 13 2 15 15 20 28 36 41 23 3 44 61 60 57 56 55 55 53 52 42 42 45 54 58 59 62 66 71 74 75 79 83 82 84 84 83 84 81
5 4 9 3 17 21 9 12 19 14 18 24 39 19 21 49 66 67 63 66 64 56 45 52 57 56 62 65 66 67 65 62 59 64 71 85 89 89 87 87 91 89 90 91
3 9 10 10 26 29 4 9 37 28 27 32 21 28 66 76 77 76 73 69 68 68 69 67 70 71 76 78 85 88 92 98 99 90 70 69 78 92 95 93 97 96 96 98
3 6 12 5 14 3 10 29 34 39 48 48 55 58 76 78 73 77 83 82 73 69 68 76 80 75 77 84 91 92 95 98 102 99 106 108 93 75 70 77 84 88 92 101
11 10 6 6 14 8 27 31 37 51 62 58 60 83 89 79 70 82 85 90 88 77 74 73 75 75 86 89 86 89 94 87 82 85 87 84 86 89 88 91 94 97 100 107
8 2 8 50 4 36 43 39 51 51 51 70 73 87 82 83 73 73 73 60 63 56 61 68 68 67 69 69 71 71 75 79 81 83 83 84 87 84 84 87 88 95 96 94
10 14 31 4 41 55 60 58 55 51 71 57 80 78 76 78 76 75 69 64 61 62 67 70 67 65 70 75 73 74 78 79 80 83 83 82 84 82 81 83 85 83 82 74
8 13 17 40 56 63 67 58 70 55 64 79 83 82 79 75 76 73 72 67 64 66 67 71 66 68 72 69 69 72 79 80 82 83 84 85 86 83 82 80 77 79 79 73
13 38 39 52 52 51 58 76 68 64 73 72 91 69 78 75 73 73 70 65 65 65 66 67 69 75 75 70 69 74 82 81 85 88 85 83 81 78 68 68 63 64 69 70
24 32 28 29 53 66 71 75 73 69 71 62 91 71 77 72 78 69 65 61 58 61 64 65 68 76 72 70 67 73 76 69 78 90 102 101 102 93 84 70 59 66 66 70
26 37 45 55 60 68 62 69 73 68 67 80 97 76 77 80 80 72 65 57 54 56 60 59 65 72 61 58 58 62 66 75 71 82 94 87 88 93 93 80 82 62 55 56
49 48 45 52 60 60 72 70 67 66 63 78 93 91 84 77 76 70 59 50 52 58 59 58 61 58 49 46 52 61 68 74 54 37 13 24 46 82 93 83 70 60 60 54
39 40 56 57 64 67 66 69 67 72 78 85 105 92 87 88 73 64 60 53 50 52 51 50 55 45 45 45 50 60 62 47 16 29 33 35 53 60 65 69 53 50 51 51
31 42 45 53 59 62 67 72 73 82 71 101 91 94 92 80 74 66 58 52 49 49 47 44 46 47 44 43 46 48 45 27 22 33 54 50 70 63 73 74 80 69 93 90
38 43 46 48 48 54 64 68 73 80 84 90 95 96 90 77 70 59 50 46 45 47 48 46 44 42 35 26 26 33 39 36 41 38 60 67 65 63 70 76 77 63 75 86
45 54 46 49 50 52 59 65 72 81 85 86 97 93 92 83 75 62 49 45 41 46 48 37 27 23 9 4 14 20 31 45 56 50 55 74 84 82 75 81 90 87 87 84
48 57 47 52 53 51 55 62 71 82 89 90 93 97 95 82 75 63 59 62 38 26 20 13 3 18 26 26 34 32 40 61 74 79 82 73 76 78 86 79 82 81 79 75
46 50 45 52 53 54 58 62 69 77 90 91 95 97 96 86 88 70 57 61 54 59 51 38 46 49 39 31 40 49 64 80 78 79 76 79 82 81 79 76 74 72 70 68
41 40 43 53 54 53 60 63 72 82 88 87 95 97 95 89 82 88 83 69 58 61 57 54 51 46 40 35 54 61 58 66 74 75 74 70 67 69 69 68 66 65 61 59
33 41 41 51 53 54 64 66 71 85 89 84 91 96 93 97 88 79 71 68 57 60 58 48 43 40 44 57 53 55 56 55 59 66 65 61 60 66 64 63 62 58 57 58
40 54 51 54 55 54 56 59 69 87 99 87 90 93 90 87 86 79 76 68 65 61 59 58 50 52 52 55 53 47 47 47 49 54 57 59 64 65 65 63 64 61 58 59
42 52 58 51 51 48 49 54 59 80 92 86 85 89 90 87 82 80 76 72 63 57 53 49 52 48 49 50 51 48 46 47 48 53 56 58 57 58 61 63 64 62 61 58
36 41 54 56 52 47 45 47 58 77 86 84 81 79 82 83 81 79 78 75 69 58 52 47 45 44 44 43 44 45 43 46 51 50 43 52 58 64 67 66 65 64 63 58
Wind_Direction_850mb
265 263 274 277 281 280 249 243 241 277 263 266 316 329 326 332 332 311 269 280 284 291 274 263 265 276 266 239 263 252 244 238 232 235 249 260 263 266 270 272 281 289 291 297
286 263 266 276 285 282 272 270 261 296 321 346 316 333 327 331 339 2 3 299 3 334 304 317 270 246 244 239 251 244 267 237 236 243 248 251 254 258 262 267 274 282 289 292
275 248 298 286 229 282 317 15 296 299 345 336 289 310 300 302 304 325 332 329 313 302 297 327 277 275 263 257 251 238 247 265 252 246 245 246 249 253 258 264 271 277 282 288
261 15 253 235 24 82 18 80 92 204 251 311 343 327 316 304 283 338 324 315 316 312 284 266 288 285 273 264 264 261 263 265 264 262 257 254 253 257 261 262 263 266 270 276
150 195 287 317 26 354 334 319 22 352 335 329 326 313 298 136 315 314 306 301 295 294 287 285 278 259 254 255 259 261 263 264 267 271 269 264 259 257 259 261 261 258 260 267
84 175 238 15 340 317 346 256 23 3 344 334 332 310 299 302 301 300 297 298 295 289 275 280 279 279 275 271 272 272 276 280 277 267 264 262 260 262 265 259 257 258 261 266
192 240 279 12 309 310 249 294 342 331 315 305 300 289 295 299 297 297 293 291 295 296 291 285 280 277 277 278 278 281 283 283 280 268 263 262 263 259 257 256 252 253 259 267
224 246 269 294 314 228 324 322 311 304 294 299 302 302 307 297 292 295 292 288 287 287 283 281 281 280 278 278 282 282 280 276 278 270 264 257 258 253 245 241 245 251 259 266
198 226 168 329 256 323 332 306 305 312 310 303 313 311 311 300 296 295 288 285 287 283 280 278 275 272 273 276 276 274 276 274 266 262 260 260 259 257 256 257 259 260 263 267
3 225 278 312 332 324 324 309 312 319 316 317 307 309 305 304 298 297 294 285 292 289 288 283 279 279 275 272 271 269 268 266 267 266 263 259 257 251 248 248 248 253 256 259
266 292 321 253 322 319 311 310 317 304 317 318 314 309 307 304 305 299 295 293 290 286 280 280 281 278 277 279 277 272 271 269 263 257 255 254 253 252 248 244 244 245 248 246
249 301 290 287 308 319 315 305 305 304 315 319 320 306 311 304 304 299 296 295 292 286 286 288 288 287 286 285 281 272 267 266 265 263 257 253 251 251 251 248 246 245 249 245
273 298 293 296 308 316 304 312 308 307 311 311 327 307 322 300 308 307 298 297 295 293 291 288 287 284 286 286 283 276 271 273 275 271 259 249 243 240 238 244 243 239 236 236
329 332 314 310 306 323 314 311 312 317 313 306 330 317 322 307 318 309 307 303 298 293 292 291 290 289 291 287 285 281 282 277 279 275 269 251 239 231 231 228 226 230 234 235
327 321 304 311 321 312 316 324 319 316 320 324 336 325 325 318 319 315 313 310 306 299 294 294 290 289 292 294 290 295 305 304 289 286 282 264 240 209 210 217 225 228 236 234
319 320 327 320 314 327 335 329 326 322 319 325 330 332 328 325 317 319 317 313 302 296 297 298 298 298 297 302 313 307 302 314 332 323 23 101 142 176 192 205 211 223 230 233
326 320 322 326 332 331 329 334 336 325 324 330 331 332 330 331 325 324 324 318 308 302 301 302 301 298 298 294 303 314 322 350 39 84 124 113 138 158 177 195 196 182 168 151
337 328 323 325 326 329 333 342 338 337 333 333 332 335 339 333 331 332 328 323 315 308 303 300 292 289 294 306 319 320 332 26 126 116 120 112 130 142 136 128 141 133 125 133
348 338 333 332 336 340 339 344 345 341 333 336 340 341 341 343 344 342 338 329 319 312 302 295 285 280 297 325 327 341 14 102 133 129 120 121 117 138 125 125 136 125 129 132
350 350 346 347 352 352 352 354 349 343 339 342 350 349 348 353 356 355 355 350 345 322 308 302 283 269 287 75 57 29 85 121 138 133 124 117 119 118 129 124 132 133 141 143
348 349 350 348 352 3 2 359 356 348 346 351 355 355 354 356 6 8 6 358 9 7 354 338 64 116 114 115 110 117 102 122 126 127 123 115 122 127 135 135 136 134 132 134
348 355 358 2 4 5 5 6 3 357 351 358 3 3 3 7 12 22 26 13 31 49 57 80 96 98 94 85 107 95 118 115 117 120 127 132 134 135 136 141 139 135 137 137
357 6 7 7 9 7 8 10 12 359 1 2 9 9 12 16 17 16 22 37 53 70 76 89 89 86 84 90 113 119 118 124 130 132 136 135 136 137 138 137 138 138 141 145
9 9 11 12 13 13 9 9 15 3 9 10 15 18 18 17 26 29 32 39 54 79 93 104 105 105 118 121 125 129 134 134 138 138 138 139 141 141 139 141 141 142 147 151
30 24 19 18 17 15 11 9 14 4 11 17 19 22 25 30 29 28 36 40 48 66 83 102 107 109 116 127 131 129 129 130 132 134 138 139 140 143 145 146 147 148 149 148
23 23 20 22 22 18 15 15 16 10 12 17 22 24 25 27 30 35 40 43 47 55 68 78 91 100 110 119 126 128 128 132 134 136 139 142 145 145 146 145 145 145 144 146
27 20 18 22 23 25 24 24 21 13 18 21 22 27 27 29 30 35 40 42 44 49 56 66 82 96 105 114 119 125 131 135 138 139 140 147 147 145 143 142 143 145 145 145